[[{"header":{"parameterUnit":"m.s-1","parameterCategory":1,"la1":30.2991,"la2":30.254,"lo1":-89.0895,"lo2":-89.0444,"dy":0.0017,"dx":0.0017,"nx":28,"ny":28,"refTime":"2025-09-02T03:00:00:Z","depth":0,"parameterNumber":2,"parameterNumberName":"U-component_of_WINDS"},"data":[0,0,0,0,0,0,0,0,0,0,0,0,0,0,0,0,0,0,0,0,0,0,0,0,0,0,0,0,0,0,0,0,0,0,0,0,0,0,0,0,0,0,0,0,0,0,0,0,0,0,0,0,0,0,0,0,0,0,-5.1551,-5.1551,0,-5.1558,-5.1559,-5.1559,-5.1446,-5.1443,-5.144,-5.1437,-5.1445,-5.1448,-5.1451,0,0,0,0,0,0,0,0,0,0,0,0,0,-5.1439,-5.1442,-5.1551,-5.1551,-5.1551,-5.1558,-5.1559,-5.1559,-5.1447,-5.1443,-5.1439,-5.1436,-5.1444,-5.1448,-5.1452,0,0,0,0,0,0,0,0,0,0,0,0,0,-5.1471,-5.1443,-5.1551,-5.1496,-5.1491,-5.1558,-5.1559,-5.1559,-5.1447,-5.1443,-5.1438,-5.1434,-5.1443,-5.1447,-5.1452,-5.1572,0,0,-5.1466,-5.1468,0,0,0,0,0,0,0,0,-5.147,-5.1476,-5.1504,-5.15,-5.1494,-5.1497,-5.1522,-5.1563,-5.1448,-5.1464,-5.1437,-5.1432,-5.1466,-5.1468,-5.148,-5.1573,-5.1573,-5.1467,-5.1469,-5.1471,-5.1473,0,0,0,0,0,0,0,-5.1468,-5.1475,-5.1554,-5.1504,-5.1499,-5.1471,-5.147,-5.1529,-5.1491,-5.1462,-5.1454,-5.1457,-5.1463,-5.1476,-5.1479,-5.1573,-5.1466,-5.147,-5.1473,-5.1475,-5.1765,-5.177,0,0,0,0,0,0,-5.1473,-5.1474,-5.1553,-5.1554,-5.1471,-5.1477,-5.1476,-5.1501,-5.149,-5.1484,-5.146,-5.1451,-5.147,-5.1474,-5.1479,-5.1619,-5.1471,-5.1476,-5.1478,-5.176,-5.1766,-5.1772,0,0,0,0,0,0,-5.1471,-5.1481,-5.1553,-5.1512,-5.1519,-5.1484,-5.1512,-5.1503,-5.1516,-5.1488,-5.1481,-5.1481,-5.1467,-5.1473,-5.155,-5.1618,-5.1478,-5.1482,-5.1755,-5.1762,-5.1769,-5.1901,0,0,0,0,0,0,-5.1468,-5.1481,-5.1526,-5.1513,-5.1521,-5.1624,-5.1516,-5.1507,-5.1524,-5.1512,-5.1506,-5.15,-5.1464,-5.1544,-5.1555,-5.1622,-5.1485,-5.1748,-5.1758,-5.1767,-5.189,-5.1912,-5.193,0,0,0,0,0,-5.1465,-5.1563,-5.1529,-5.1539,-5.1577,-5.1628,-5.1633,-5.1589,-5.153,-5.1576,-5.1558,-5.15,-5.1609,-5.1553,-5.1564,-5.1633,-5.1744,-5.1755,-5.1766,-5.1881,-5.1907,-5.193,0,0,0,0,0,0,-5.1584,-5.156,-5.1522,-5.162,-5.1627,-5.1609,-5.1665,-5.1618,-5.1642,-5.163,-5.1574,-5.1573,-5.166,-5.1654,-5.1592,-5.1749,-5.1666,-5.168,-5.175,-5.1774,-5.1794,-5.1793,-5.1489,0,0,0,0,0,-5.1622,-5.1666,-5.1642,-5.173,-5.1736,-5.17,-5.1721,-5.1686,-5.1691,-5.1694,-5.1682,-5.1689,-5.1725,-5.1749,-5.1781,-5.1889,-5.1886,-5.1942,-5.1962,-5.1979,-5.1991,-5.2048,-5.2073,-5.1808,-5.1808,-5.1808,0,0,-5.1701,-5.1693,-5.1724,-5.1754,-5.1756,-5.1802,-5.1703,-5.1757,-5.179,-5.1702,-5.1774,-5.1766,-5.177,-5.1864,-5.1904,-5.1862,-5.2064,-5.1993,-5.2007,-5.201,-5.2062,-5.2087,-5.211,-5.1816,-5.1814,-5.1813,0,0,-5.1867,-5.1866,-5.1939,-5.1943,-5.1946,-5.1922,-5.194,-5.1929,-5.192,-5.1992,-5.1927,-5.1966,-5.2029,-5.2035,-5.2046,-5.2216,-5.2164,-5.2228,-5.2332,-5.2389,-5.2409,-5.2428,-5.2488,-5.251,-5.2241,-5.2241,-5.2241,0,-5.1964,-5.2031,-5.1982,-5.204,-5.2055,-5.1978,-5.2052,-5.2058,-5.2072,-5.2084,-5.2037,-5.2114,-5.2111,-5.2205,-5.2247,-5.2259,-5.2277,-5.2228,-5.241,-5.2428,-5.2444,-5.2501,-5.2524,-5.2249,-5.2248,-5.2247,-5.2247,0,-5.215,-5.2197,-5.2256,-5.2272,-5.2294,-5.2359,-5.2321,-5.2349,-5.2313,-5.2294,-5.2368,-5.2363,-5.2392,-5.2412,-5.2377,-5.2501,-5.2475,-5.242,-5.2335,-5.2478,-5.2531,-5.2552,-5.226,-5.2257,-5.2255,-5.2253,0,0,-5.2391,-5.2379,-5.2401,-5.2408,-5.2406,-5.2442,-5.2505,-5.2533,-5.2558,-5.2571,-5.2622,-5.2677,-5.2626,-5.264,-5.2605,-5.2655,-5.2789,-5.2593,-5.2592,-5.2629,-5.2925,-5.2966,-5.2992,-5.2755,-5.2759,-5.2762,-5.2925,0,-5.2552,-5.2657,-5.2616,-5.2725,-5.2768,-5.2696,-5.275,-5.2755,-5.274,-5.2774,-5.2756,-5.2797,-5.2727,-5.2734,-5.278,-5.2763,-5.2848,-5.2751,-5.2802,-5.2804,-5.2802,-5.3019,-5.3062,-5.3216,-5.2945,-5.2948,-5.2951,0,-5.2754,-5.2775,-5.2888,-5.288,-5.2896,-5.2946,-5.2968,-5.3003,-5.3008,-5.2993,-5.3008,-5.2963,-5.3023,-5.294,-5.3023,-5.2958,-5.2976,-5.2972,-5.2976,-5.2979,-5.2886,-5.3027,-5.3263,-5.3286,-5.2983,-5.298,-5.2978,0,-5.2918,-5.2974,-5.3049,-5.3057,-5.3049,-5.3086,-5.3084,-5.3084,-5.3104,-5.3125,-5.3137,-5.3164,-5.3179,-5.3202,-5.3165,-5.3108,-5.3253,-5.3166,-5.3242,-5.3244,-5.3275,-5.3274,-5.3518,-5.3289,-5.3289,-5.3289,-5.3288,0,-5.3102,-5.3174,-5.3123,-5.3169,-5.3248,-5.32,-5.3279,-5.3269,-5.3271,-5.3314,-5.3253,-5.3295,-5.3245,-5.3282,-5.3254,-5.3327,-5.3334,-5.3324,-5.3315,-5.3329,-5.333,-5.3339,-5.3327,-5.3295,-5.3293,-5.3292,-5.3291,0,-5.3297,-5.3266,-5.3343,-5.333,-5.3328,-5.3387,-5.3375,-5.3417,-5.3398,-5.3453,-5.3463,-5.3433,-5.3473,-5.3439,-5.3479,-5.346,-5.3557,-5.3534,-5.3555,-5.3548,-5.3626,-5.3619,-5.3883,-5.3915,-5.3668,-5.367,-5.3672,0,-5.3416,-5.347,-5.3462,-5.3487,-5.3489,-5.353,-5.355,-5.3505,-5.3528,-5.3538,-5.358,-5.3615,-5.3641,-5.371,-5.3691,-5.3721,-5.3698,-5.3788,-5.3702,-5.3714,-5.3698,-5.3695,-5.37,-5.3806,-5.3809,-5.3811,-5.3813,0,-5.363,-5.3613,-5.3644,-5.367,-5.3696,-5.3714,-5.3728,-5.3752,-5.3706,-5.3735,-5.3776,-5.3796,-5.3837,-5.3873,-5.3897,-5.3895,-5.3847,-5.3841,-5.386,-5.3873,-5.3883,-5.3878,-5.3602,-5.3834,-5.3832,-5.3831,-5.383,-5.3829,-5.3791,-5.3835,-5.3837,-5.3873,-5.3879,-5.3894,-5.3933,-5.3918,-5.3951,-5.3981,-5.3953,-5.4002,-5.4006,-5.4033,-5.4038,-5.4076,-5.4038,-5.4066,-5.4073,-5.408,-5.4091,-5.3878,-5.4081,-5.408,-5.4079,-5.4079,-5.4078,0,-5.4001,-5.3999,-5.4033,-5.4054,-5.4084,-5.4036,-5.4049,-5.4076,-5.412,-5.4128,-5.4155,-5.4203,-5.4238,-5.4222,-5.4253,-5.4286,-5.4265,-5.4296,-5.4292,-5.4293,-5.4123,-5.4103,-5.4313,-5.4313,-5.4313,-5.4313,-5.4313,-5.4313,-5.4114,-5.4186,-5.4169,-5.4244,-5.4241,-5.4289,-5.43,-5.4313,-5.4319,-5.4375,-5.4403,-5.4393,-5.4392,-5.4422,-5.4452,-5.4447,-5.446,-5.45,-5.4486,-5.4328,-5.4305,-5.4283,-5.4264,-5.4503,-5.4503,-5.4652,-5.4654,-5.4655]},{"header":{"parameterUnit":"m.s-1","parameterCategory":1,"la1":30.2991,"la2":30.254,"lo1":-89.0895,"lo2":-89.0444,"dy":0.0017,"dx":0.0017,"nx":28,"ny":28,"refTime":"2025-09-02T03:00:00:Z","depth":0,"parameterNumber":3,"parameterNumberName":"V-component_of_WINDS"},"data":[0,0,0,0,0,0,0,0,0,0,0,0,0,0,0,0,0,0,0,0,0,0,0,0,0,0,0,0,0,0,0,0,0,0,0,0,0,0,0,0,0,0,0,0,0,0,0,0,0,0,0,0,0,0,0,0,0,0,-1.2072,-1.2072,0,-1.2084,-1.2084,-1.2085,-1.2057,-1.2056,-1.2055,-1.2054,-1.2068,-1.2069,-1.207,0,0,0,0,0,0,0,0,0,0,0,0,0,-1.2023,-1.2024,-1.2072,-1.2072,-1.2072,-1.2084,-1.2084,-1.2085,-1.2057,-1.2056,-1.2055,-1.2054,-1.2067,-1.2069,-1.207,0,0,0,0,0,0,0,0,0,0,0,0,0,-1.2041,-1.2024,-1.2072,-1.206,-1.2059,-1.2084,-1.2085,-1.2085,-1.2057,-1.2056,-1.2054,-1.2053,-1.2067,-1.2069,-1.207,-1.2108,0,0,-1.2076,-1.2077,0,0,0,0,0,0,0,0,-1.204,-1.2043,-1.2061,-1.206,-1.2059,-1.2068,-1.2072,-1.2093,-1.2057,-1.2058,-1.2054,-1.2052,-1.2069,-1.207,-1.2076,-1.2109,-1.211,-1.2076,-1.2077,-1.2078,-1.2078,0,0,0,0,0,0,0,-1.2039,-1.2042,-1.2077,-1.2062,-1.206,-1.2053,-1.2054,-1.2076,-1.2071,-1.2058,-1.2056,-1.2057,-1.2068,-1.2074,-1.2076,-1.211,-1.2076,-1.2078,-1.2079,-1.2079,-1.2174,-1.2175,0,0,0,0,0,0,-1.2039,-1.2041,-1.2076,-1.2077,-1.2046,-1.2055,-1.2057,-1.2066,-1.207,-1.207,-1.2059,-1.2056,-1.2072,-1.2074,-1.2076,-1.212,-1.2078,-1.2079,-1.2081,-1.2173,-1.2174,-1.2176,0,0,0,0,0,0,-1.2038,-1.2042,-1.2076,-1.2059,-1.2062,-1.2058,-1.2069,-1.2067,-1.2073,-1.2071,-1.207,-1.2066,-1.2071,-1.2074,-1.21,-1.2121,-1.208,-1.2082,-1.2171,-1.2173,-1.2175,-1.221,0,0,0,0,0,0,-1.2037,-1.2042,-1.2057,-1.2059,-1.2063,-1.21,-1.207,-1.2069,-1.2076,-1.2073,-1.2077,-1.2077,-1.207,-1.2098,-1.2102,-1.2122,-1.2083,-1.2169,-1.2172,-1.2174,-1.2207,-1.2213,-1.2218,0,0,0,0,0,-1.2035,-1.2067,-1.2058,-1.2062,-1.2082,-1.2101,-1.2104,-1.2095,-1.2078,-1.2093,-1.2091,-1.2077,-1.2117,-1.2101,-1.2105,-1.2126,-1.2168,-1.2171,-1.2174,-1.2204,-1.2212,-1.2218,0,0,0,0,0,0,-1.2068,-1.2067,-1.2057,-1.209,-1.2096,-1.2097,-1.2115,-1.2103,-1.2114,-1.211,-1.2099,-1.21,-1.2129,-1.213,-1.2112,-1.2163,-1.214,-1.2144,-1.2161,-1.2168,-1.2174,-1.2173,-1.2085,0,0,0,0,0,-1.2078,-1.2094,-1.2093,-1.2122,-1.2126,-1.212,-1.2128,-1.212,-1.2126,-1.2128,-1.2129,-1.2135,-1.2149,-1.2158,-1.2171,-1.2207,-1.2207,-1.2223,-1.2229,-1.2233,-1.2237,-1.2255,-1.2262,-1.2186,-1.2186,-1.2186,0,0,-1.2101,-1.2103,-1.2114,-1.2129,-1.2132,-1.2149,-1.2122,-1.2141,-1.2153,-1.2131,-1.2156,-1.2157,-1.2163,-1.2194,-1.2207,-1.2196,-1.2258,-1.2238,-1.2241,-1.2243,-1.2259,-1.2267,-1.2273,-1.2189,-1.2188,-1.2188,0,0,-1.2152,-1.2155,-1.2179,-1.2183,-1.2188,-1.2184,-1.219,-1.2192,-1.2191,-1.2216,-1.2199,-1.2214,-1.2238,-1.2243,-1.2248,-1.2299,-1.2286,-1.2303,-1.2333,-1.235,-1.2356,-1.2362,-1.2379,-1.2386,-1.2307,-1.2307,-1.2307,0,-1.218,-1.2204,-1.2193,-1.2213,-1.2219,-1.22,-1.2224,-1.2228,-1.2238,-1.2243,-1.223,-1.2259,-1.2262,-1.2293,-1.2305,-1.2311,-1.2317,-1.2303,-1.2356,-1.2361,-1.2366,-1.2383,-1.2389,-1.2309,-1.2309,-1.2309,-1.2309,0,-1.2238,-1.2255,-1.2274,-1.2283,-1.2292,-1.2314,-1.2306,-1.2316,-1.2307,-1.2304,-1.2329,-1.2331,-1.2344,-1.235,-1.2342,-1.238,-1.2373,-1.2358,-1.2335,-1.2376,-1.2391,-1.2397,-1.2312,-1.2312,-1.2311,-1.231,0,0,-1.231,-1.2311,-1.2319,-1.2322,-1.2326,-1.2339,-1.2359,-1.2371,-1.238,-1.2387,-1.2404,-1.2424,-1.241,-1.2417,-1.2409,-1.2424,-1.2463,-1.2407,-1.2407,-1.2417,-1.2504,-1.2515,-1.2523,-1.2454,-1.2455,-1.2456,-1.2504,0,-1.2359,-1.2395,-1.2384,-1.242,-1.2435,-1.2416,-1.2434,-1.2438,-1.2435,-1.2448,-1.2444,-1.2459,-1.244,-1.2443,-1.2458,-1.2455,-1.248,-1.2452,-1.247,-1.2471,-1.2469,-1.2531,-1.2543,-1.2588,-1.251,-1.2511,-1.2511,0,-1.2422,-1.243,-1.2467,-1.2467,-1.2473,-1.249,-1.2499,-1.2511,-1.2515,-1.2512,-1.2518,-1.2507,-1.2527,-1.2503,-1.253,-1.2511,-1.2517,-1.2517,-1.2519,-1.252,-1.2494,-1.2534,-1.2602,-1.2609,-1.2521,-1.252,-1.252,0,-1.247,-1.2491,-1.2515,-1.2519,-1.252,-1.2532,-1.2533,-1.2535,-1.2543,-1.2551,-1.2555,-1.2566,-1.2572,-1.258,-1.2571,-1.2555,-1.2599,-1.2575,-1.2597,-1.2598,-1.2608,-1.2608,-1.2678,-1.2612,-1.2612,-1.2612,-1.2612,0,-1.2527,-1.255,-1.2537,-1.2552,-1.2577,-1.2565,-1.259,-1.2589,-1.2591,-1.2605,-1.2589,-1.2603,-1.2591,-1.2603,-1.2597,-1.262,-1.2623,-1.2621,-1.2619,-1.2622,-1.2622,-1.2627,-1.2623,-1.2614,-1.2613,-1.2613,-1.2613,0,-1.2585,-1.2578,-1.2603,-1.2601,-1.2601,-1.262,-1.2618,-1.2632,-1.2628,-1.2646,-1.2649,-1.2643,-1.2656,-1.2649,-1.2663,-1.2658,-1.2688,-1.2682,-1.2687,-1.2685,-1.2708,-1.2706,-1.2783,-1.2793,-1.2721,-1.2722,-1.2723,0,-1.2622,-1.2639,-1.2639,-1.2647,-1.2649,-1.2662,-1.2669,-1.2658,-1.2666,-1.2671,-1.2684,-1.2696,-1.2705,-1.2728,-1.2724,-1.2735,-1.2729,-1.2755,-1.273,-1.2733,-1.2729,-1.2728,-1.273,-1.276,-1.2761,-1.2762,-1.2762,0,-1.2687,-1.2682,-1.2693,-1.2702,-1.2711,-1.2717,-1.2723,-1.273,-1.2719,-1.2728,-1.2742,-1.2749,-1.2763,-1.2775,-1.2784,-1.2785,-1.2772,-1.277,-1.2776,-1.278,-1.2782,-1.2781,-1.2701,-1.2769,-1.2768,-1.2768,-1.2767,-1.2767,-1.2736,-1.275,-1.2752,-1.2764,-1.2766,-1.2771,-1.2784,-1.278,-1.2791,-1.2802,-1.2794,-1.281,-1.2812,-1.2823,-1.2825,-1.2837,-1.2827,-1.2835,-1.2837,-1.2839,-1.2842,-1.2779,-1.2839,-1.2839,-1.2838,-1.2838,-1.2838,0,-1.28,-1.28,-1.2811,-1.2819,-1.2828,-1.2814,-1.2819,-1.2828,-1.2842,-1.2845,-1.2854,-1.2869,-1.2881,-1.2877,-1.2888,-1.2898,-1.2892,-1.2901,-1.29,-1.29,-1.2851,-1.2845,-1.2905,-1.2905,-1.2905,-1.2905,-1.2905,-1.2905,-1.2835,-1.2857,-1.2852,-1.2876,-1.2875,-1.2891,-1.2894,-1.2899,-1.2901,-1.2919,-1.2928,-1.2925,-1.2926,-1.2936,-1.2945,-1.2944,-1.2949,-1.296,-1.2956,-1.2911,-1.2904,-1.2898,-1.2892,-1.2961,-1.2961,-1.3004,-1.3005,-1.3005]}]]